EW7704 Weather Reports


Display with metric or nautical units.
time (UTC)temp
F
wind
direction
speed
MPH
gust
MPH
rain 1hr
in
rain 24hr
in
rain mn
in
humidity
%
barometer
mb
20260509005600 67 360 3.0 6.0 0.00 0.00 0.00 38 1007.3
20260509005100 67 360 1.0 8.0 0.00 0.00 0.00 36 1007.4
20260509004601 67 360 3.0 9.0 0.00 0.00 0.00 36 1007.4
20260509004100 68 360 4.0 9.0 0.00 0.00 0.00 36 1007.5
20260509003600 67 360 2.0 5.0 0.00 0.00 0.00 37 1007.4
20260509003200 68 360 2.0 8.0 0.00 0.00 0.00 35 1007.4
20260509002559 68 131 6.0 10.0 0.00 0.00 0.00 35 1007.3
20260509002103 68 55 7.0 10.0 0.00 0.00 0.00 35 1007.4
20260509001558 68 360 4.0 10.0 0.00 0.00 0.00 37 1007.4
20260509001059 68 30 5.0 10.0 0.00 0.00 0.00 35 1007.3
20260509000601 68 70 3.0 9.0 0.00 0.00 0.00 35 1007.4
20260509000110 69 37 5.0 9.0 0.00 0.00 0.00 34 1007.4
20260508235558 69 112 3.0 9.0 0.00 0.00 0.00 35 1007.3
20260508235058 69 28 3.0 7.0 0.00 0.00 0.00 34 1007.4
20260508234600 69 69 3.0 8.0 0.00 0.00 0.00 34 1007.4
20260508234057 69 15 0.0 5.0 0.00 0.00 0.00 35 1007.3
20260508233557 69 63 3.0 5.0 0.00 0.00 0.00 35 1007.4
20260508233103 69 20 1.0 7.0 0.00 0.00 0.00 35 1007.4
20260508232556 69 57 3.0 10.0 0.00 0.00 0.00 35 1007.3
20260508232057 69 9 4.0 10.0 0.00 0.00 0.00 36 1007.4
20260508231558 69 32 6.0 10.0 0.00 0.00 0.00 35 1007.3
20260508231056 68 36 3.0 7.0 0.00 0.00 0.00 36 1007.5
20260508230556 69 117 1.0 6.0 0.00 0.00 0.00 35 1007.4
20260508230105 69 34 0.0 9.0 0.00 0.00 0.00 36 1007.5
20260508225556 69 58 1.0 9.0 0.00 0.00 0.00 35 1007.5
20260508225055 69 51 4.0 8.0 0.00 0.00 0.00 34 1007.5
20260508224555 70 247 0.0 4.0 0.00 0.00 0.00 35 1007.5
20260508224053 70 360 2.0 5.0 0.00 0.00 0.00 37 1007.5
20260508223552 68 66 1.0 10.0 0.00 0.00 0.00 35 1007.6
20260508223052 69 32 3.0 10.0 0.00 0.00 0.00 36 1007.6
20260508222556 69 40 5.0 12.0 0.00 0.00 0.00 36 1007.6
20260508222052 69 49 6.0 12.0 0.00 0.00 0.00 37 1007.6
20260508221551 69 57 3.0 9.0 0.00 0.00 0.00 37 1007.7
20260508221051 69 105 6.0 11.0 0.00 0.00 0.00 37 1007.7
20260508220552 69 36 4.0 11.0 0.00 0.00 0.00 37 1007.8
20260508220049 69 72 1.0 10.0 0.00 0.00 0.00 38 1007.9
20260508215549 69 323 5.0 10.0 0.00 0.00 0.00 37 1007.9
20260508215049 69 41 4.0 8.0 0.00 0.00 0.00 38 1007.9
20260508214548 68 31 1.0 11.0 0.00 0.00 0.00 37 1007.9
20260508214052 69 40 4.0 11.0 0.00 0.00 0.00 37 1008.0
20260508213548 69 44 3.0 10.0 0.00 0.00 0.00 39 1007.9
20260508213047 68 90 2.0 9.0 0.00 0.00 0.00 38 1007.9
20260508212548 68 196 4.0 9.0 0.00 0.00 0.00 38 1008.0
20260508212045 68 114 3.0 7.0 0.00 0.00 0.00 40 1008.0
20260508211545 68 126 3.0 9.0 0.00 0.00 0.00 40 1008.0
20260508211047 68 81 5.0 9.0 0.00 0.00 0.00 41 1008.1
20260508210544 68 360 4.0 9.0 0.00 0.00 0.00 40 1008.3
20260508210044 68 96 4.0 8.0 0.00 0.00 0.00 40 1008.3
20260508205545 69 110 1.0 7.0 0.00 0.00 0.00 38 1008.4
20260508205042 67 91 3.0 7.0 0.00 0.00 0.00 40 1008.4
20260508204544 67 68 1.0 6.0 0.00 0.00 0.00 41 1008.5
20260508204041 67 22 3.0 10.0 0.00 0.00 0.00 40 1008.5
20260508203541 67 61 2.0 9.0 0.00 0.00 0.00 41 1008.5
20260508203041 67 76 4.0 9.0 0.00 0.00 0.00 40 1008.6
20260508202542 67 97 4.0 8.0 0.00 0.00 0.00 41 1008.6
20260508202044 68 53 4.0 12.0 0.00 0.00 0.00 39 1008.7
20260508201542 69 46 3.0 12.0 0.00 0.00 0.00 39 1008.8
20260508201039 67 139 2.0 7.0 0.00 0.00 0.00 42 1008.8
20260508200538 66 200 1.0 6.0 0.00 0.00 0.00 44 1008.9
20260508200038 68 68 3.0 6.0 0.00 0.00 0.00 42 1009.0
20260508195537 66 335 1.0 11.0 0.00 0.00 0.00 44 1009.1
20260508195038 66 360 7.0 11.0 0.00 0.00 0.00 44 1009.0
20260508194610 66 94 1.0 9.0 0.00 0.00 0.00 42 1009.1
20260508194037 67 88 4.0 9.0 0.00 0.00 0.00 41 1009.1
20260508193536 69 235 1.0 6.0 0.00 0.00 0.00 43 1009.1
20260508193034 68 217 1.0 6.0 0.00 0.00 0.00 42 1009.2
20260508192535 69 346 2.0 6.0 0.00 0.00 0.00 40 1009.3
20260508192035 69 209 2.0 7.0 0.00 0.00 0.00 42 1009.4
20260508191532 69 342 2.0 7.0 0.00 0.00 0.00 41 1009.5
20260508191031 68 221 2.0 6.0 0.00 0.00 0.00 42 1009.5
20260508190530 68 19 2.0 6.0 0.00 0.00 0.00 42 1009.6
20260508190029 67 213 3.0 5.0 0.00 0.00 0.00 44 1009.6
20260508185527 66 81 2.0 14.0 0.00 0.00 0.00 45 1009.6
20260508185027 66 87 3.0 8.0 0.00 0.00 0.00 47 1009.7
20260508184532 65 82 2.0 9.0 0.00 0.00 0.00 43 1009.8
20260508184026 66 225 4.0 9.0 0.00 0.00 0.00 45 1010.0
20260508183525 66 360 3.0 9.0 0.00 0.00 0.00 45 1010.0
20260508183025 65 177 1.0 6.0 0.00 0.00 0.00 47 1010.1
20260508182527 64 31 1.0 5.0 0.00 0.00 0.00 47 1010.2
20260508182024 66 360 2.0 6.0 0.00 0.00 0.00 48 1010.3
20260508181530 65 360 1.0 9.0 0.00 0.00 0.00 48 1010.3
20260508181024 64 119 4.0 9.0 0.00 0.00 0.00 47 1010.3
20260508180522 63 360 3.0 9.0 0.00 0.00 0.00 49 1010.4
20260508180024 63 360 2.0 11.0 0.00 0.00 0.00 50 1010.5
20260508175519 63 81 6.0 11.0 0.00 0.00 0.00 49 1010.6
20260508175020 62 301 4.0 11.0 0.00 0.00 0.00 54 1010.7
20260508174518 61 97 4.0 13.0 0.00 0.00 0.00 51 1010.7
20260508174017 62 47 8.0 13.0 0.00 0.00 0.00 51 1010.8
20260508173517 61 43 3.0 13.0 0.00 0.00 0.00 53 1010.9
20260508173031 61 213 3.0 13.0 0.00 0.00 0.00 54 1010.9
20260508172516 61 309 2.0 13.0 0.00 0.00 0.00 54 1010.9
20260508172016 61 106 4.0 13.0 0.00 0.00 0.00 52 1010.9
20260508171523 62 255 2.0 10.0 0.00 0.00 0.00 52 1011.0
20260508171015 61 137 2.0 8.0 0.00 0.00 0.00 52 1011.2
20260508170515 61 311 4.0 9.0 0.00 0.00 0.00 52 1011.2
20260508170014 60 70 5.0 9.0 0.00 0.00 0.00 52 1011.2
20260508165513 61 94 2.0 9.0 0.00 0.00 0.00 53 1011.3
20260508165013 61 310 4.0 9.0 0.00 0.00 0.00 53 1011.3
20260508164516 59 31 3.0 6.0 0.00 0.00 0.00 55 1011.3
20260508164011 58 11 3.0 8.0 0.00 0.00 0.00 57 1011.4
20260508163510 58 5 3.0 9.0 0.00 0.00 0.00 55 1011.3
20260508163018 58 36 4.0 9.0 0.00 0.00 0.00 54 1011.3
20260508162509 59 36 6.0 9.0 0.00 0.00 0.00 57 1011.2
20260508162008 58 28 4.0 9.0 0.00 0.00 0.00 55 1011.3
20260508161507 57 25 3.0 9.0 0.00 0.00 0.00 57 1011.3
20260508161007 57 46 5.0 9.0 0.00 0.00 0.00 58 1011.3
20260508160506 56 68 5.0 9.0 0.00 0.00 0.00 58 1011.2
20260508160006 57 24 3.0 7.0 0.00 0.00 0.00 56 1011.2
20260508155506 56 51 1.0 9.0 0.00 0.00 0.00 59 1011.3
20260508155005 56 67 3.0 9.0 0.00 0.00 0.00 57 1011.3
20260508154505 56 86 1.0 8.0 0.00 0.00 0.00 62 1011.3
20260508154002 56 52 4.0 8.0 0.00 0.00 0.00 61 1011.3
20260508153503 56 58 4.0 8.0 0.00 0.00 0.00 62 1011.3
20260508153002 55 75 3.0 8.0 0.00 0.00 0.00 65 1011.3
20260508152600 55 80 5.0 8.0 0.00 0.00 0.00 67 1011.2
20260508152059 54 36 2.0 5.0 0.00 0.00 0.00 68 1011.3
20260508151607 54 26 3.0 5.0 0.00 0.00 0.00 68 1011.4
20260508151057 54 37 1.0 5.0 0.00 0.00 0.00 70 1011.3
20260508150557 53 36 2.0 5.0 0.00 0.00 0.00 69 1011.4
20260508150057 54 62 2.0 4.0 0.00 0.00 0.00 75 1011.4
20260508145554 52 38 1.0 4.0 0.00 0.00 0.00 75 1011.5
20260508145054 52 120 2.0 4.0 0.00 0.00 0.00 77 1011.4
20260508144554 52 105 0.0 4.0 0.00 0.00 0.00 79 1011.4
20260508144055 51 110 1.0 4.0 0.00 0.00 0.00 80 1011.3
20260508143554 51 153 0.0 3.0 0.00 0.00 0.00 81 1011.3
20260508143055 51 149 1.0 3.0 0.00 0.00 0.00 82 1011.3
20260508142553 50 217 0.0 3.0 0.00 0.00 0.00 83 1011.2
20260508142053 50 225 0.0 4.0 0.00 0.00 0.00 84 1011.3
20260508141554 49 227 0.0 4.0 0.00 0.00 0.00 85 1011.4
20260508141053 48 193 0.0 6.0 0.00 0.00 0.00 85 1011.4
20260508140553 48 196 2.0 6.0 0.00 0.00 0.00 86 1011.4
20260508140053 48 166 1.0 6.0 0.00 0.00 0.00 86 1011.3
20260508135553 47 205 1.0 5.0 0.00 0.00 0.00 87 1011.2
20260508135052 47 197 1.0 5.0 0.00 0.00 0.00 87 1011.3
20260508134557 47 184 2.0 5.0 0.00 0.00 0.00 88 1011.3
20260508134055 47 205 2.0 5.0 0.00 0.00 0.00 87 1011.3
20260508133552 47 182 1.0 5.0 0.00 0.00 0.00 87 1011.4
20260508133103 48 190 1.0 3.0 0.00 0.00 0.00 87 1011.5
20260508132551 48 208 1.0 3.0 0.00 0.00 0.00 88 1011.6
20260508132052 48 199 0.0 2.0 0.00 0.00 0.00 89 1011.5
20260508131553 48 360 0.0 1.0 0.00 0.00 0.00 90 1011.6
20260508131052 47 360 0.0 1.0 0.00 0.00 0.00 92 1011.6
20260508130551 46 360 0.0 1.0 0.00 0.00 0.00 93 1011.6
20260508130051 46 360 0.0 2.0 0.00 0.00 0.00 93 1011.6
20260508125551 46 360 0.0 2.0 0.00 0.00 0.00 94 1011.6
20260508125051 45 360 0.0 2.0 0.00 0.00 0.00 94 1011.6
20260508124549 45 360 0.0 1.0 0.00 0.00 0.00 94 1011.8
20260508124049 45 360 0.0 1.0 0.00 0.00 0.00 94 1011.9
20260508123549 45 360 0.0 1.0 0.00 0.00 0.00 94 1012.0
20260508123055 45 360 0.0 1.0 0.00 0.00 0.00 94 1012.0
20260508122549 44 360 0.0 2.0 0.00 0.00 0.00 94 1012.0
20260508122050 44 360 0.0 3.0 0.00 0.00 0.00 94 1012.2
20260508121553 44 360 0.0 3.0 0.00 0.00 0.00 94 1012.4
20260508121047 44 360 1.0 3.0 0.00 0.00 0.00 95 1012.3
20260508120546 44 360 0.0 3.0 0.00 0.00 0.00 94 1012.2
20260508120046 43 360 1.0 3.0 0.00 0.00 0.00 95 1011.9
20260508115546 43 360 1.0 3.0 0.00 0.00 0.00 94 1011.6
20260508115046 43 360 1.0 3.0 0.00 0.00 0.00 95 1011.8
20260508114543 43 360 1.0 3.0 0.00 0.00 0.00 94 1011.7
20260508114043 43 360 1.0 3.0 0.00 0.00 0.00 94 1011.4
20260508113542 42 360 0.0 1.0 0.00 0.00 0.00 94 1011.3
20260508113046 42 360 0.0 0.0 0.00 0.00 0.00 94 1011.2
20260508112540 43 360 0.0 0.0 0.00 0.00 0.00 93 1011.0
20260508112039 43 360 0.0 0.0 0.00 0.00 0.00 93 1010.9
20260508111539 43 360 0.0 0.0 0.00 0.00 0.00 93 1011.0
20260508111040 43 360 0.0 0.0 0.00 0.00 0.00 93 1011.1
20260508110539 43 360 0.0 0.0 0.00 0.00 0.00 93 1010.9
20260508110044 43 360 0.0 1.0 0.00 0.00 0.00 93 1010.9
20260508105541 43 360 0.0 1.0 0.00 0.00 0.00 93 1010.9
20260508105038 43 360 0.0 0.0 0.00 0.00 0.00 93 1010.6
20260508104537 44 360 0.0 1.0 0.00 0.00 0.00 93 1010.7
20260508104037 44 360 0.0 1.0 0.00 0.00 0.00 93 1010.7
20260508103537 44 360 0.0 0.0 0.00 0.00 0.00 93 1010.6
20260508103036 44 360 0.0 1.0 0.00 0.00 0.00 93 1010.5
20260508102536 44 360 0.0 1.0 0.00 0.00 0.00 93 1010.6
20260508102037 44 360 0.0 0.0 0.00 0.00 0.00 92 1010.5
20260508101535 44 360 0.0 0.0 0.00 0.00 0.00 93 1010.7
20260508101038 44 360 0.0 1.0 0.00 0.00 0.00 92 1010.8
20260508100536 44 360 0.0 2.0 0.00 0.00 0.00 92 1010.9
20260508100034 44 360 0.0 2.0 0.00 0.00 0.00 92 1011.0
20260508095537 44 360 0.0 1.0 0.00 0.00 0.00 92 1010.7
20260508095034 44 360 0.0 1.0 0.00 0.00 0.00 92 1010.7
20260508094532 43 360 0.0 3.0 0.00 0.00 0.00 92 1010.7
20260508094037 43 360 0.0 3.0 0.00 0.00 0.00 91 1010.4
20260508093531 43 360 0.0 1.0 0.00 0.00 0.00 91 1010.0
20260508093031 43 360 0.0 2.0 0.00 0.00 0.00 91 1009.8
20260508092530 43 360 0.0 2.0 0.00 0.00 0.00 90 1009.8
20260508092029 44 360 0.0 1.0 0.00 0.00 0.00 91 1009.8
20260508091529 44 360 0.0 1.0 0.00 0.00 0.00 89 1009.8
20260508091028 45 360 0.0 2.0 0.00 0.00 0.00 90 1009.8
20260508090529 44 360 0.0 2.0 0.00 0.00 0.00 90 1009.7
20260508090032 44 360 0.0 2.0 0.00 0.00 0.00 90 1009.8
20260508085527 44 360 0.0 1.0 0.00 0.00 0.00 90 1009.8
20260508085025 44 360 0.0 2.0 0.00 0.00 0.00 90 1009.9
20260508084525 44 360 0.0 3.0 0.00 0.00 0.00 90 1009.9
20260508084024 44 360 1.0 3.0 0.00 0.00 0.00 90 1010.0
20260508083524 44 360 0.0 2.0 0.00 0.00 0.00 88 1009.9
20260508083022 45 360 0.0 2.0 0.00 0.00 0.00 87 1010.0
20260508082522 46 360 0.0 1.0 0.00 0.00 0.00 88 1010.3
20260508082023 46 360 0.0 1.0 0.00 0.00 0.00 89 1010.5
20260508081524 46 360 0.0 1.0 0.00 0.00 0.00 89 1010.5
20260508081019 46 360 0.0 1.0 0.00 0.00 0.00 90 1010.7
20260508080519 46 360 0.0 1.0 0.00 0.00 0.00 90 1010.9
20260508080019 46 360 0.0 0.0 0.00 0.00 0.00 90 1010.9
20260508075519 46 360 0.0 0.0 0.00 0.00 0.00 90 1011.0
20260508075018 46 360 0.0 1.0 0.00 0.00 0.00 90 1011.0
20260508074517 46 360 0.0 1.0 0.00 0.00 0.00 90 1011.1
20260508074017 46 360 0.0 1.0 0.00 0.00 0.00 89 1010.9
20260508073516 46 360 0.0 0.0 0.00 0.00 0.00 88 1011.0
20260508073016 46 360 0.0 0.0 0.00 0.00 0.00 87 1011.1
20260508072513 47 360 0.0 0.0 0.00 0.00 0.00 86 1011.0
20260508072013 48 360 0.0 1.0 0.00 0.00 0.00 87 1011.2
20260508071524 48 360 0.0 1.0 0.00 0.00 0.00 86 1011.2
20260508071012 48 360 0.0 1.0 0.00 0.00 0.00 86 1011.2
20260508070512 48 360 0.0 0.0 0.00 0.00 0.00 86 1011.1
20260508070010 48 360 0.0 0.0 0.00 0.00 0.00 85 1011.1
20260508065517 48 360 0.0 1.0 0.00 0.00 0.00 84 1011.0
20260508065008 48 360 0.0 1.0 0.00 0.00 0.00 83 1010.9
20260508064510 49 360 0.0 0.0 0.00 0.00 0.00 82 1010.7
20260508064005 49 360 0.0 1.0 0.00 0.00 0.00 81 1010.6
20260508063505 50 360 0.0 1.0 0.00 0.00 0.00 80 1010.5
20260508063005 50 360 0.0 2.0 0.00 0.00 0.00 79 1010.6
20260508062504 50 37 0.0 3.0 0.00 0.00 0.00 79 1010.6
20260508062002 51 38 0.0 3.0 0.00 0.00 0.00 78 1010.7
20260508061502 51 34 2.0 3.0 0.00 0.00 0.00 79 1010.8
20260508061102 51 38 1.0 2.0 0.00 0.00 0.00 78 1010.7
20260508060559 52 40 0.0 4.0 0.00 0.00 0.00 76 1011.0
20260508060106 52 40 1.0 4.0 0.00 0.00 0.00 76 1011.2
20260508055557 52 35 1.0 3.0 0.00 0.00 0.00 76 1011.3
20260508055057 52 244 0.0 3.0 0.00 0.00 0.00 76 1011.3
20260508054600 52 230 0.0 4.0 0.00 0.00 0.00 76 1011.1
20260508054057 52 211 1.0 4.0 0.00 0.00 0.00 77 1011.3
20260508053557 52 248 0.0 2.0 0.00 0.00 0.00 79 1011.2
20260508053059 52 240 0.0 3.0 0.00 0.00 0.00 78 1011.4
20260508052556 52 251 1.0 4.0 0.00 0.00 0.00 76 1011.2
20260508052057 53 360 2.0 4.0 0.00 0.00 0.00 74 1011.2
20260508051600 53 360 0.0 2.0 0.00 0.00 0.00 72 1010.7
20260508051056 53 360 0.0 3.0 0.00 0.00 0.00 72 1010.5
20260508050558 53 360 1.0 6.0 0.00 0.00 0.00 71 1010.3
20260508050056 53 360 3.0 6.0 0.00 0.00 0.00 71 1010.1
20260508045555 53 360 3.0 8.0 0.00 0.00 0.00 70 1010.1
20260508045057 53 360 4.0 10.0 0.00 0.00 0.00 70 1010.0
20260508044605 54 360 5.0 10.0 0.00 0.00 0.00 69 1010.2
20260508044057 54 360 5.0 10.0 0.00 0.00 0.00 70 1010.2
20260508043557 54 360 6.0 11.0 0.00 0.00 0.00 70 1010.2
20260508043107 54 57 6.0 11.0 0.00 0.00 0.00 69 1010.2
20260508042554 54 65 5.0 9.0 0.00 0.00 0.00 69 1010.3
20260508042053 54 79 4.0 12.0 0.00 0.00 0.00 70 1010.2
20260508041555 54 360 6.0 12.0 0.00 0.00 0.00 71 1010.3
20260508041053 54 47 4.0 9.0 0.00 0.00 0.00 70 1010.7
20260508040553 55 38 1.0 3.0 0.00 0.00 0.00 67 1011.2
20260508040059 55 175 0.0 2.0 0.00 0.00 0.00 65 1011.7
20260508035553 55 169 0.0 2.0 0.00 0.00 0.00 65 1011.5
20260508035053 55 94 0.0 3.0 0.00 0.00 0.00 65 1011.1
20260508034555 55 89 1.0 5.0 0.00 0.00 0.00 64 1010.7
20260508034053 55 76 2.0 5.0 0.00 0.00 0.00 63 1010.6
20260508033552 56 57 3.0 7.0 0.00 0.00 0.00 62 1010.5
20260508033052 56 50 4.0 7.0 0.00 0.00 0.00 61 1010.5
20260508032552 56 59 3.0 9.0 0.00 0.00 0.00 60 1010.4
20260508032050 56 39 3.0 11.0 0.00 0.00 0.00 59 1010.3
20260508031551 56 51 5.0 11.0 0.00 0.00 0.00 59 1010.4
20260508031052 57 51 5.0 9.0 0.00 0.00 0.00 58 1010.3
20260508030550 57 47 4.0 11.0 0.00 0.00 0.00 57 1010.5
20260508030058 58 49 6.0 11.0 0.00 0.00 0.00 54 1010.3
20260508025549 59 32 5.0 11.0 0.00 0.00 0.00 51 1010.3
20260508025050 59 49 5.0 10.0 0.00 0.00 0.00 48 1010.4
20260508024550 60 59 3.0 11.0 0.00 0.00 0.00 46 1010.2
20260508024049 60 66 6.0 11.0 0.00 0.00 0.00 46 1010.2
20260508023548 59 65 4.0 9.0 0.00 0.00 0.00 48 1010.0
20260508023049 59 42 4.0 9.0 0.00 0.00 0.00 47 1010.0
20260508022549 59 35 2.0 4.0 0.00 0.00 0.00 48 1009.9
20260508022048 59 310 0.0 3.0 0.00 0.00 0.00 48 1009.9
20260508021549 59 301 0.0 1.0 0.00 0.00 0.00 47 1009.9
20260508021048 59 301 0.0 1.0 0.00 0.00 0.00 48 1009.8
20260508020548 59 301 0.0 1.0 0.00 0.00 0.00 47 1009.6
20260508020050 60 302 0.0 1.0 0.00 0.00 0.00 47 1009.3
20260508015550 60 302 0.0 1.0 0.00 0.00 0.00 46 1009.2
20260508015048 60 302 0.0 1.0 0.00 0.00 0.00 48 1009.2
20260508014548 60 302 0.0 2.0 0.00 0.00 0.00 46 1009.1
20260508014048 61 303 1.0 4.0 0.00 0.00 0.00 44 1009.0
20260508013548 61 349 1.0 5.0 0.00 0.00 0.00 43 1008.7
20260508013047 61 56 2.0 8.0 0.00 0.00 0.00 43 1008.7
20260508012550 61 32 3.0 8.0 0.00 0.00 0.00 44 1008.7
20260508012047 61 360 1.0 5.0 0.00 0.00 0.00 45 1008.6
20260508011547 61 360 2.0 8.0 0.00 0.00 0.00 44 1008.7
20260508011046 62 360 2.0 8.0 0.00 0.00 0.00 43 1008.6
20260508010546 62 360 1.0 8.0 0.00 0.00 0.00 43 1008.7
20260508010047 62 360 3.0 8.0 0.00 0.00 0.00 43 1008.7